This is the latest recevied weather packets stored in our database for station/object W1TG-2. If no packets are shown the sender has not sent any weather packets the latest 10 day(s).
| Time | Temp. | Humidity | Pressure | Rain* | Wind** | Luminosity | Snow |
|---|---|---|---|---|---|---|---|
| 1787592964 | 28.33° C | 43% | 1012 hPa | 0.25 mm | - | - | - |
| 1787592603 | 28.33° C | 44% | 1012.2 hPa | 0.25 mm | - | - | - |
| 1787592243 | 27.78° C | 42% | 1012.1 hPa | 0.25 mm | - | - | - |
| 1787591884 | 27.78° C | 41% | 1012.3 hPa | 0.25 mm | - | - | - |
| 1787591523 | 27.78° C | 42% | 1012.3 hPa | 0.25 mm | - | - | - |
| 1787591163 | 28.33° C | 44% | 1012.1 hPa | 0.25 mm | - | - | - |
| 1787590804 | 28.33° C | 48% | 1012.3 hPa | 0 mm | - | - | - |
| 1787590444 | 28.33° C | 47% | 1012.2 hPa | 0 mm | - | - | - |
| 1787590083 | 27.78° C | 45% | 1012.4 hPa | 0 mm | - | - | - |
| 1787589724 | 27.78° C | 48% | 1012.3 hPa | 0 mm | - | - | - |
| 1787589364 | 27.78° C | 49% | 1012.4 hPa | 0 mm | - | - | - |
| 1787589003 | 27.22° C | 47% | 1012.4 hPa | 0 mm | - | - | - |
| 1787588643 | 27.78° C | 49% | 1012.5 hPa | 0 mm | - | - | - |
| 1787588284 | 27.22° C | 50% | 1012.5 hPa | 0 mm | - | - | - |
| 1787587923 | 27.22° C | 55% | 1012.5 hPa | 0 mm | - | - | - |
| 1787587563 | 26.67° C | 54% | 1012.4 hPa | 0 mm | - | - | - |
| 1787587204 | 26.11° C | 56% | 1012.5 hPa | 0 mm | - | - | - |
| 1787586843 | 26.11° C | 69% | 1012.6 hPa | 0 mm | - | - | - |
| 1787586483 | 25.56° C | 69% | 1012.6 hPa | 0 mm | - | - | - |
| 1787586123 | 25° C | 71% | 1012.6 hPa | 0 mm | - | - | - |
| 1787585764 | 25° C | 73% | 1012.6 hPa | 0 mm | - | - | - |
| 1787585043 | 24.44° C | 73% | 1012.7 hPa | 0 mm | - | - | - |
| 1787584683 | 24.44° C | 78% | 1012.6 hPa | 0 mm | - | - | - |
| 1787584324 | 23.89° C | 82% | 1012.7 hPa | 0 mm | - | - | - |
| 1787583964 | 23.89° C | 83% | 1012.8 hPa | 0 mm | - | - | - |
* Rain latest hour (hover to see other rain measurements)
** Current wind speed in m/s (hover to see current wind gust speed)